When you browse on this site, cookies collect data to enhance your experience and personalize the content and advertising you see.
Visit our Privacy Policy to learn more. By continuing to use the site, you agree to this use of cookies and data.
  • In Hungary
  • List of Countries
  • For 7 days
  • Water Temperature
  • Weather Map
  • News
  • Weather Widgets
  • user-avatar
    Login

    Hourly Weather Vigia del Fuerte

    Today, 4 April, Saturday

    Time Temperature Precipitation Wind Pressure Humidity
    00:00 +25°C° 0.2 mm 1 mps 755 mmHg 97%
    01:00 +23°C° 0 mm 0 mps 755 mmHg 98%
    02:00 +23°C° 2 mm 0 mps 755 mmHg 98%
    03:00 +23°C° 2 mm 0 mps 754 mmHg 98%
    04:00 +23°C° 2 mm 0 mps 754 mmHg 98%
    05:00 +23°C° 1 mm 0 mps 754 mmHg 98%
    06:00 +23°C° 1 mm 0 mps 755 mmHg 98%
    07:00 +24°C° 1 mm 0 mps 755 mmHg 98%
    08:00 +25°C° 0.3 mm 0 mps 755 mmHg 92%
    09:00 +28°C° 0.3 mm 1 mps 756 mmHg 86%
    10:00 +30°C° 0.3 mm 1 mps 756 mmHg 80%
    11:00 +32°C° 0 mm 1 mps 755 mmHg 72%
    12:00 +34°C° 0 mm 1 mps 754 mmHg 63%
    13:00 +35°C° 0 mm 1 mps 753 mmHg 55%
    14:00 +35°C° 0.2 mm 1 mps 753 mmHg 58%
    15:00 +35°C° 0.2 mm 1 mps 752 mmHg 61%
    16:00 +34°C° 0.2 mm 1 mps 752 mmHg 64%
    17:00 +32°C° 0.7 mm 1 mps 752 mmHg 74%
    18:00 +30°C° 0.7 mm 1 mps 753 mmHg 83%
    19:00 +27°C° 0.7 mm 1 mps 753 mmHg 93%
    20:00 +27°C° 0.1 mm 1 mps 754 mmHg 93%
    21:00 +27°C° 0.1 mm 1 mps 754 mmHg 94%
    22:00 +24°C° 0.1 mm 0 mps 755 mmHg 95%
    23:00 +24°C° 0.4 mm 0 mps 755 mmHg 95%

    Tomorrow, 5 April, Sunday

    Time Temperature Precipitation Wind Pressure Humidity
    00:00 +24°C° 0.4 mm 0 mps 755 mmHg 95%
    01:00 +24°C° 0.4 mm 0 mps 754 mmHg 95%
    02:00 +24°C° 0.2 mm 0 mps 754 mmHg 95%
    03:00 +24°C° 0.2 mm 0 mps 754 mmHg 95%
    04:00 +24°C° 0.2 mm 0 mps 754 mmHg 96%
    05:00 +24°C° 0.1 mm 0 mps 754 mmHg 96%
    06:00 +24°C° 0.1 mm 0 mps 755 mmHg 95%
    07:00 +25°C° 0.1 mm 0 mps 755 mmHg 95%
    08:00 +25°C° 0.1 mm 0 mps 756 mmHg 92%
    09:00 +26°C° 0.1 mm 0 mps 756 mmHg 90%
    10:00 +27°C° 0.1 mm 0 mps 756 mmHg 87%
    11:00 +29°C° 0.2 mm 0 mps 755 mmHg 78%
    12:00 +31°C° 0.2 mm 0 mps 754 mmHg 69%
    13:00 +33°C° 0.2 mm 0 mps 753 mmHg 60%
    14:00 +35°C° 0.3 mm 1 mps 753 mmHg 63%
    15:00 +34°C° 0.3 mm 1 mps 753 mmHg 66%
    16:00 +33°C° 0.3 mm 1 mps 752 mmHg 69%
    17:00 +31°C° 2.2 mm 1 mps 753 mmHg 78%
    18:00 +29°C° 2.2 mm 1 mps 753 mmHg 86%
    19:00 +27°C° 2.2 mm 1 mps 754 mmHg 95%
    20:00 +27°C° 4.2 mm 1 mps 755 mmHg 96%
    21:00 +27°C° 4.2 mm 1 mps 755 mmHg 97%
    22:00 +24°C° 4.2 mm 0 mps 756 mmHg 98%
    23:00 +24°C° 3.2 mm 0 mps 756 mmHg 98%

    Day after tomorrow, 6 April, Monday

    Time Temperature Precipitation Wind Pressure Humidity
    00:00 +24°C° 3.2 mm 0 mps 756 mmHg 98%
    01:00 +24°C° 3.2 mm 0 mps 755 mmHg 99%
    02:00 +24°C° 3.3 mm 0 mps 755 mmHg 99%
    03:00 +24°C° 3.3 mm 0 mps 755 mmHg 99%
    04:00 +24°C° 3.3 mm 0 mps 755 mmHg 99%
    05:00 +24°C° 2.9 mm 0 mps 756 mmHg 99%
    06:00 +24°C° 2.9 mm 0 mps 756 mmHg 99%
    07:00 +26°C° 2.9 mm 1 mps 756 mmHg 99%
    08:00 +27°C° 0.7 mm 1 mps 757 mmHg 97%
    09:00 +27°C° 0.7 mm 1 mps 757 mmHg 95%
    10:00 +28°C° 0.7 mm 1 mps 757 mmHg 94%
    11:00 +28°C° 0.3 mm 0 mps 756 mmHg 83%
    12:00 +31°C° 0.3 mm 0 mps 755 mmHg 72%
    13:00 +33°C° 0.3 mm 0 mps 754 mmHg 62%
    14:00 +34°C° 1.9 mm 1 mps 754 mmHg 71%
    15:00 +32°C° 1.9 mm 1 mps 754 mmHg 81%
    16:00 +30°C° 1.9 mm 2 mps 753 mmHg 91%
    17:00 +29°C° 2 mm 1 mps 754 mmHg 93%
    18:00 +28°C° 2 mm 1 mps 754 mmHg 95%
    19:00 +27°C° 2 mm 1 mps 755 mmHg 97%
    20:00 +25°C° 1.1 mm 0 mps 755 mmHg 97%
    21:00 +25°C° 1.1 mm 0 mps 756 mmHg 97%
    22:00 +24°C° 1.1 mm 0 mps 756 mmHg 98%
    23:00 +24°C° 0.4 mm 0 mps 756 mmHg 98%

    7 April, Tuesday

    Time Temperature Precipitation Wind Pressure Humidity
    00:00 +24°C° 0.4 mm 0 mps 756 mmHg 98%
    01:00 +24°C° 0.4 mm 0 mps 756 mmHg 98%
    02:00 +24°C° 0.3 mm 0 mps 756 mmHg 98%
    03:00 +24°C° 0.3 mm 0 mps 756 mmHg 99%
    04:00 +24°C° 0.3 mm 0 mps 755 mmHg 99%
    05:00 +24°C° 0.4 mm 0 mps 756 mmHg 98%
    06:00 +24°C° 0.4 mm 0 mps 756 mmHg 98%
    07:00 +24°C° 0.4 mm 0 mps 756 mmHg 98%
    08:00 +26°C° 0 mm 0 mps 756 mmHg 89%
    09:00 +30°C° 0 mm 1 mps 757 mmHg 80%
    10:00 +32°C° 0 mm 1 mps 757 mmHg 71%
    11:00 +32°C° 0.1 mm 0 mps 756 mmHg 66%
    12:00 +33°C° 0.1 mm 0 mps 755 mmHg 60%
    13:00 +35°C° 0.1 mm 0 mps 754 mmHg 54%
    14:00 +35°C° 0.7 mm 1 mps 754 mmHg 61%
    15:00 +34°C° 0.7 mm 1 mps 753 mmHg 69%
    16:00 +32°C° 0.7 mm 1 mps 753 mmHg 76%
    17:00 +31°C° 0.9 mm 1 mps 754 mmHg 81%
    18:00 +29°C° 0.9 mm 1 mps 754 mmHg 87%
    19:00 +27°C° 0.9 mm 1 mps 755 mmHg 93%
    20:00 +25°C° 1.9 mm 0 mps 755 mmHg 94%
    21:00 +24°C° 1.9 mm 0 mps 756 mmHg 96%
    22:00 +24°C° 1.9 mm 0 mps 756 mmHg 98%
    23:00 +24°C° 1.6 mm 0 mps 756 mmHg 98%

    8 April, Wednesday

    Time Temperature Precipitation Wind Pressure Humidity
    00:00 +24°C° 1.6 mm 0 mps 756 mmHg 98%
    01:00 +24°C° 1.6 mm 0 mps 755 mmHg 98%
    02:00 +24°C° 0.2 mm 0 mps 755 mmHg 98%
    03:00 +24°C° 0.2 mm 0 mps 755 mmHg 98%
    04:00 +26°C° 0.2 mm 1 mps 755 mmHg 98%
    05:00 +24°C° 0.3 mm 0 mps 755 mmHg 98%
    06:00 +24°C° 0.3 mm 0 mps 755 mmHg 97%
    07:00 +24°C° 0.3 mm 0 mps 756 mmHg 97%
    08:00 +26°C° 0.1 mm 0 mps 756 mmHg 89%
    09:00 +28°C° 0.1 mm 0 mps 756 mmHg 82%
    10:00 +29°C° 0.1 mm 0 mps 756 mmHg 74%
    11:00 +31°C° 0.1 mm 0 mps 756 mmHg 68%
    12:00 +33°C° 0.1 mm 0 mps 755 mmHg 62%
    13:00 +36°C° 0.1 mm 1 mps 754 mmHg 56%
    14:00 +35°C° 1.3 mm 1 mps 754 mmHg 65%
    15:00 +33°C° 1.3 mm 1 mps 753 mmHg 75%
    16:00 +31°C° 1.3 mm 1 mps 753 mmHg 84%
    17:00 +30°C° 0.8 mm 1 mps 753 mmHg 87%
    18:00 +29°C° 0.8 mm 1 mps 754 mmHg 91%
    19:00 +27°C° 0.8 mm 1 mps 754 mmHg 94%
    20:00 +27°C° 2 mm 1 mps 755 mmHg 95%
    21:00 +24°C° 2 mm 0 mps 756 mmHg 97%
    22:00 +24°C° 2 mm 0 mps 756 mmHg 98%
    23:00 +24°C° 1.1 mm 0 mps 756 mmHg 98%

    9 April, Thursday

    Time Temperature Precipitation Wind Pressure Humidity
    00:00 +24°C° 1.1 mm 0 mps 756 mmHg 98%
    01:00 +24°C° 1.1 mm 0 mps 755 mmHg 98%
    02:00 +24°C° 1 mm 0 mps 755 mmHg 98%
    03:00 +24°C° 1 mm 0 mps 755 mmHg 98%
    04:00 +24°C° 1 mm 0 mps 755 mmHg 99%
    05:00 +24°C° 0.5 mm 0 mps 755 mmHg 98%
    06:00 +24°C° 0.5 mm 0 mps 756 mmHg 98%
    07:00 +24°C° 0.5 mm 0 mps 756 mmHg 97%
    08:00 +25°C° 0.1 mm 0 mps 756 mmHg 91%
    09:00 +29°C° 0.1 mm 1 mps 756 mmHg 85%
    10:00 +30°C° 0.1 mm 1 mps 756 mmHg 79%
    11:00 +31°C° 0.7 mm 1 mps 756 mmHg 76%
    12:00 +32°C° 0.7 mm 1 mps 755 mmHg 73%
    13:00 +33°C° 0.7 mm 1 mps 754 mmHg 70%
    14:00 +32°C° 1.6 mm 1 mps 754 mmHg 76%
    15:00 +31°C° 1.6 mm 1 mps 753 mmHg 81%
    16:00 +31°C° 1.6 mm 1 mps 752 mmHg 87%
    17:00 +29°C° 0.6 mm 1 mps 753 mmHg 89%
    18:00 +28°C° 0.6 mm 1 mps 754 mmHg 92%
    19:00 +25°C° 0.6 mm 0 mps 754 mmHg 95%
    20:00 +25°C° 0.1 mm 0 mps 755 mmHg 95%
    21:00 +24°C° 0.1 mm 0 mps 755 mmHg 96%
    22:00 +24°C° 0.1 mm 0 mps 756 mmHg 96%
    23:00 +24°C° 0 mm 0 mps 756 mmHg 96%
    Show more